Decatur, IL

9:13 PM CDT on August 23, 2017 (GMT -0500)
Decatur

Weather History for KDEC - April, 2014

Change the Weather History Date:

Thursday, April 3, 2014

  Actual Average Record
Temperature  
Mean Temperature 55 °F 48 °F  
Max Temperature 61 °F 59 °F 87 °F (2012)
Min Temperature 49 °F 38 °F 25 °F (2013)
Degree Days  
Heating Degree Days 10 17  
Month to date heating degree days 45 52  
Since 1 July heating degree days 5743 5036  
Cooling Degree Days 0 0  
Month to date cooling degree days 0 0  
Year to date cooling degree days 0 1  
Growing Degree Days 4 (Base 50)    
Moisture  
Dew Point 51 °F    
Average Humidity 95    
Maximum Humidity 100    
Minimum Humidity 89    
Precipitation  
Precipitation 1.00 in 0.09 in 1.00 in (2014)
Month to date precipitation 1.59 0.29  
Year to date precipitation 4.20 6.65  
Sea Level Pressure  
Sea Level Pressure 29.74 in    
Wind  
Wind Speed 10 mph (East)    
Max Wind Speed 23 mph    
Max Gust Speed 28 mph    
Visibility 5 miles    
Events Rain , Thunderstorm    
T = Trace of Precipitation, MM = Missing Value Source: NWS Daily Summary

Daily Weather History Graph

Daily Weather History Graph

Search for Another Location

Airport or City:

Trip Planner

Search our weather history database for the weather conditions in past years. The results will help you decide how hot, cold, wet, or windy it might be!

Date:

Astronomy

Apr. 03, 2014 Rise Set
Actual Time 6:36 AM CDT 7:21 PM CDT
Civil Twilight 6:09 AM CDT 7:49 PM CDT
Nautical Twilight 5:36 AM CDT 8:21 PM CDT
Astronomical Twilight 5:03 AM CDT 8:54 PM CDT
Moon 9:05 AM CDT (4/3) 11:40 PM CDT (4/3)
Length of Visible Light 13h 40m
Length of Day
12h 45m
Waxing Crescent, 17% of the Moon is Illuminated
Apr 3
Waxing Crescent
Apr 7
First Quarter
Apr 15
Full
Apr 22
Last Quarter
Apr 29
New

Hourly Weather History & Observations

Time (CDT) Temp. Dew Point Humidity Pressure Visibility Wind Dir Wind Speed Gust Speed Precip Events Conditions
12:06 AM 51.1 °F 48.9 °F 92% 29.92 in 6.0 mi East 15.0 mph - N/A   Overcast
12:54 AM 51.1 °F 48.9 °F 92% 29.91 in 3.0 mi East 12.7 mph - 0.02 in Rain Light Rain
1:44 AM 51.1 °F 48.9 °F 92% 29.86 in 2.5 mi East 13.8 mph - 0.00 in Rain Light Rain
1:54 AM 51.1 °F 48.9 °F 92% 29.85 in 2.5 mi East 12.7 mph - 0.00 in   Overcast
2:02 AM 51.1 °F 48.9 °F 92% 29.83 in 3.0 mi East 13.8 mph - N/A   Overcast
2:23 AM 51.1 °F 50.0 °F 96% 29.82 in 2.5 mi East 13.8 mph - 0.00 in Rain Light Rain
2:54 AM 51.1 °F 50.0 °F 96% 29.83 in 3.0 mi ESE 12.7 mph - 0.00 in   Overcast
3:12 AM 51.1 °F 50.0 °F 96% 29.82 in 2.5 mi East 9.2 mph - 0.00 in Rain Light Rain
3:37 AM 51.1 °F 50.0 °F 96% 29.78 in 1.5 mi East 16.1 mph - 0.02 in Rain Light Rain
3:54 AM 51.1 °F 50.0 °F 96% 29.77 in 1.2 mi ESE 11.5 mph - 0.13 in Rain Heavy Rain
4:27 AM 52.0 °F 51.1 °F 97% 29.74 in 2.0 mi ESE 13.8 mph - 0.01 in Rain Light Rain
4:35 AM 52.0 °F 51.1 °F 97% 29.74 in 1.8 mi ESE 12.7 mph - 0.01 in Rain Light Rain
4:43 AM 52.0 °F 51.1 °F 97% 29.73 in 2.0 mi ESE 12.7 mph - 0.02 in Rain Light Rain
4:54 AM 52.0 °F 51.1 °F 97% 29.73 in 2.0 mi ESE 12.7 mph - 0.02 in   Overcast
5:45 AM 53.1 °F 52.0 °F 96% 29.70 in 1.2 mi East 10.4 mph - 0.00 in   Overcast
5:54 AM 53.1 °F 53.1 °F 100% 29.70 in 0.8 mi East 10.4 mph - 0.00 in Thunderstorm Unknown
6:52 AM 57.2 °F 57.2 °F 100% 29.72 in 1.8 mi SSW 13.8 mph 27.6 mph 0.11 in Rain , Thunderstorm Light Rain
6:54 AM 57.9 °F 57.0 °F 97% 29.72 in 2.0 mi WNW 17.3 mph 27.6 mph 0.12 in Rain , Thunderstorm Light Rain
6:59 AM 57.0 °F 57.0 °F 100% 29.72 in 2.0 mi WNW 13.8 mph 27.6 mph 0.09 in Rain , Thunderstorm Heavy Rain
7:02 AM 57.0 °F 57.0 °F 100% 29.72 in 1.8 mi WNW 17.3 mph 23.0 mph 0.11 in Rain , Thunderstorm Heavy Rain
7:10 AM 55.0 °F 55.0 °F 100% 29.73 in 2.5 mi NNW 9.2 mph - 0.19 in Rain , Thunderstorm Heavy Rain
7:15 AM 54.0 °F 54.0 °F 100% 29.72 in 3.0 mi North 9.2 mph - 0.20 in Rain , Thunderstorm Light Rain
7:52 AM 51.8 °F 51.8 °F 100% 29.73 in 9.0 mi NE 10.4 mph - 0.24 in Rain , Thunderstorm Light Rain
7:54 AM 52.0 °F 51.1 °F 97% 29.74 in 10.0 mi NNE 9.2 mph - 0.25 in Rain , Thunderstorm Light Rain
8:26 AM 51.1 °F 50.0 °F 96% 29.72 in 6.0 mi ENE 9.2 mph - 0.05 in Rain , Thunderstorm Rain
8:54 AM 51.1 °F 48.9 °F 92% 29.68 in 7.0 mi ENE 17.3 mph - 0.09 in Rain , Thunderstorm Light Rain
9:26 AM 50.0 °F 48.9 °F 96% 29.68 in 10.0 mi ENE 10.4 mph - 0.01 in   Mostly Cloudy
9:49 AM 50.0 °F 50.0 °F 100% 29.70 in 10.0 mi East 6.9 mph - 0.01 in   Scattered Clouds
9:54 AM 50.0 °F 50.0 °F 100% 29.72 in 10.0 mi East 6.9 mph - 0.01 in   Mostly Cloudy
10:03 AM 51.1 °F 50.0 °F 96% 29.72 in 10.0 mi ENE 4.6 mph - N/A   Mostly Cloudy
10:54 AM 51.1 °F 48.9 °F 92% 29.73 in 6.0 mi East 4.6 mph - 0.04 in Rain Light Rain
11:54 AM 51.1 °F 48.9 °F 92% 29.75 in 10.0 mi NNW 6.9 mph - 0.01 in Rain Light Rain
12:54 PM 53.1 °F 51.1 °F 93% 29.70 in 6.0 mi SE 5.8 mph - 0.00 in   Overcast
1:54 PM 55.0 °F 53.1 °F 93% 29.64 in 6.0 mi NNW 10.4 mph - 0.00 in   Overcast
2:54 PM 54.0 °F 51.1 °F 90% 29.71 in 6.0 mi North 4.6 mph - N/A   Overcast
3:54 PM 53.1 °F 51.1 °F 93% 29.74 in 6.0 mi NE 4.6 mph - N/A   Overcast
4:54 PM 54.0 °F 52.0 °F 93% 29.76 in 2.5 mi South 6.9 mph - 0.03 in Rain Light Rain
5:11 PM 54.0 °F 52.0 °F 93% 29.71 in 3.0 mi SSE 13.8 mph - 0.00 in Rain Light Rain
5:35 PM 55.9 °F 54.0 °F 93% 29.71 in 5.0 mi South 12.7 mph - 0.00 in   Overcast
5:54 PM 57.9 °F 55.9 °F 93% 29.73 in 10.0 mi West 9.2 mph 20.7 mph 0.00 in   Overcast
6:10 PM 57.9 °F 55.9 °F 93% 29.71 in 10.0 mi Variable 5.8 mph - N/A   Overcast
6:29 PM 57.9 °F 55.9 °F 93% 29.69 in 10.0 mi Calm Calm - N/A   Overcast
6:54 PM 57.9 °F 55.9 °F 93% 29.68 in 10.0 mi Calm Calm - 0.00 in   Overcast
7:54 PM 60.1 °F 53.1 °F 78% 29.63 in 10.0 mi South 16.1 mph - 0.01 in Rain Light Rain
8:54 PM 50.0 °F 48.0 °F 93% 29.73 in 4.0 mi NNW 9.2 mph - 0.01 in Rain Light Rain
9:03 PM 50.0 °F 48.0 °F 93% 29.72 in 4.0 mi NNW 10.4 mph - 0.01 in Rain Light Rain
9:16 PM 48.9 °F 48.0 °F 97% 29.69 in 2.5 mi North 11.5 mph - 0.02 in Rain Light Rain
9:25 PM 48.9 °F 48.0 °F 97% 29.67 in 3.0 mi North 11.5 mph - 0.03 in Rain Light Rain
10:54 PM 50.0 °F 48.9 °F 96% 29.70 in 3.0 mi SE 6.9 mph - 0.15 in Rain Light Rain
11:54 PM 54.0 °F 52.0 °F 93% 29.65 in 10.0 mi SSE 16.1 mph - 0.05 in Rain Light Rain